Voltar ao catálogo

CZ-4 DEB

AtivoSSO
NORAD 26222·DEBRIS·🇨🇳 China

Lançado Oct 14, 1999 de Taiyuan Satellite Launch Center

Loading…

Próximas Passagens (próximas 24 horas)

TLE

AtualizadoSource: Space-Track

Época: Sep 14, 2026, 14:23 UTC

1 26222U 99057DL  26257.59949010  .00000656  00000-0  15853-3 0  9995
2 26222  98.4699 319.9975 0068383 169.2489 191.0188 14.55116511396771

Acompanhe CZ-4 DEB em tempo real com AllMySat

Download on the App Store